EW3486 Weather Reports


Display with metric or nautical units.
time (UTC)temp
F
wind
direction
speed
MPH
gust
MPH
rain 1hr
in
rain 24hr
in
rain mn
in
humidity
%
barometer
mb
20260506142755 76 201 4.0 0.0 0.00 0.00 0.00 35 322.4
20260506142249 77 203 2.0 0.0 0.00 0.00 0.00 37 322.4
20260506141743 77 233 3.0 20.0 0.00 0.00 0.00 37 322.4
20260506141237 77 245 4.0 20.0 0.00 0.00 0.00 38 322.4
20260506140731 77 259 2.0 0.0 0.00 0.00 0.00 38 322.4
20260506140225 77 272 3.0 12.0 0.00 0.00 0.00 37 322.4
20260506135719 77 287 2.0 0.0 0.00 0.00 0.00 40 322.4
20260506135213 77 301 3.0 0.0 0.00 0.00 0.00 39 322.4
20260506134707 77 319 3.0 0.0 0.00 0.00 0.00 38 322.4
20260506134201 77 333 3.0 0.0 0.00 0.00 0.00 40 322.4
20260506133655 77 338 2.0 0.0 0.00 0.00 0.00 41 322.4
20260506133149 77 352 3.0 0.0 0.00 0.00 0.00 40 322.4
20260506132643 76 5 3.0 0.0 0.00 0.00 0.00 40 322.5
20260506132137 77 19 4.0 0.0 0.00 0.00 0.00 37 322.4
20260506131631 77 31 3.0 0.0 0.00 0.00 0.00 38 322.4
20260506131125 77 46 3.0 0.0 0.00 0.00 0.00 38 322.4
20260506130619 77 53 3.0 0.0 0.00 0.00 0.00 38 322.4
20260506130113 77 69 4.0 0.0 0.00 0.00 0.00 37 322.4
20260506125607 77 89 4.0 0.0 0.00 0.00 0.00 36 322.4
20260506125101 77 92 2.0 0.0 0.00 0.00 0.00 38 322.4
20260506124555 77 101 4.0 0.0 0.00 0.00 0.00 36 322.4
20260506124049 77 113 2.0 0.0 0.00 0.00 0.00 40 322.4
20260506123543 77 125 3.0 0.0 0.00 0.00 0.00 38 322.4
20260506123037 77 139 3.0 0.0 0.00 0.00 0.00 39 322.4
20260506122531 77 145 4.0 15.0 0.00 0.00 0.00 35 322.4
20260506122025 77 152 3.0 15.0 0.00 0.00 0.00 36 322.3
20260506121519 78 157 3.0 15.0 0.00 0.00 0.00 40 322.3
20260506121013 78 97 3.0 12.0 0.00 0.00 0.00 37 322.3
20260506120507 78 174 1.0 12.0 0.00 0.00 0.00 39 322.3
20260506120001 78 83 3.0 0.0 0.00 0.00 0.00 39 322.3
20260506115455 78 148 2.0 12.0 0.00 0.00 0.00 39 322.2
20260506114949 79 353 2.0 12.0 0.00 0.00 0.00 40 322.3
20260506114443 78 204 2.0 0.0 0.00 0.00 0.00 41 322.3
20260506113937 79 214 3.0 0.0 0.00 0.00 0.00 38 322.3
20260506113431 79 219 2.0 0.0 0.00 0.00 0.00 37 322.3
20260506112925 80 225 1.0 0.0 0.00 0.00 0.00 38 322.3
20260506112419 79 225 2.0 15.0 0.00 0.00 0.00 38 322.3
20260506111913 80 234 2.0 15.0 0.00 0.00 0.00 37 322.4
20260506111407 80 231 1.0 0.0 0.00 0.00 0.00 44 322.4
20260506110901 80 235 1.0 0.0 0.00 0.00 0.00 44 322.4
20260506110355 80 239 1.0 0.0 0.00 0.00 0.00 43 322.4
20260506105849 80 236 2.0 0.0 0.00 0.00 0.00 44 322.4
20260506105343 79 241 2.0 0.0 0.00 0.00 0.00 44 322.5
20260506104837 79 246 1.0 0.0 0.00 0.00 0.00 43 322.5
20260506104331 79 247 1.0 15.0 0.00 0.00 0.00 42 322.5
20260506103825 80 257 3.0 15.0 0.00 0.00 0.00 41 322.5
20260506103319 80 251 1.0 0.0 0.00 0.00 0.00 45 322.5
20260506102813 79 251 1.0 0.0 0.00 0.00 0.00 44 322.5
20260506102307 79 246 2.0 0.0 0.00 0.00 0.00 44 322.6
20260506101801 79 252 2.0 0.0 0.00 0.00 0.00 44 322.6
20260506101255 79 241 2.0 0.0 0.00 0.00 0.00 43 322.7
20260506100749 78 255 0.0 0.0 0.00 0.00 0.00 43 322.7
20260506100243 78 253 2.0 0.0 0.00 0.00 0.00 42 322.8
20260506095737 78 88 1.0 0.0 0.00 0.00 0.00 42 322.8
20260506095231 78 250 2.0 0.0 0.00 0.00 0.00 42 322.8
20260506094725 78 244 2.0 0.0 0.00 0.00 0.00 42 322.9
20260506094219 77 240 2.0 0.0 0.00 0.00 0.00 43 322.9
20260506093713 77 236 0.0 0.0 0.00 0.00 0.00 42 323.0
20260506093207 76 234 0.0 0.0 0.00 0.00 0.00 43 323.1
20260506092701 76 230 2.0 0.0 0.00 0.00 0.00 43 323.1
20260506092155 76 229 0.0 0.0 0.00 0.00 0.00 43 323.1
20260506091649 76 224 1.0 0.0 0.00 0.00 0.00 44 323.2
20260506091143 76 214 0.0 0.0 0.00 0.00 0.00 44 323.2
20260506090637 75 214 2.0 0.0 0.00 0.00 0.00 44 323.3
20260506090131 75 205 0.0 0.0 0.00 0.00 0.00 43 323.3
20260506085625 75 200 0.0 0.0 0.00 0.00 0.00 45 323.4
20260506085119 74 191 2.0 0.0 0.00 0.00 0.00 45 323.5
20260506084613 74 185 1.0 0.0 0.00 0.00 0.00 45 323.5
20260506084107 74 177 1.0 0.0 0.00 0.00 0.00 45 323.5
20260506083601 74 170 0.0 0.0 0.00 0.00 0.00 43 323.6
20260506083055 74 158 2.0 0.0 0.00 0.00 0.00 44 323.6
20260506082549 74 154 3.0 0.0 0.00 0.00 0.00 42 323.7
20260506082043 74 144 1.0 0.0 0.00 0.00 0.00 41 323.7
20260506081537 74 129 0.0 0.0 0.00 0.00 0.00 42 323.7
20260506081031 74 124 0.0 0.0 0.00 0.00 0.00 43 323.8
20260506080525 73 111 0.0 0.0 0.00 0.00 0.00 43 323.8
20260506073449 71 49 0.0 0.0 0.00 0.00 0.00 45 324.1
20260506072943 71 29 0.0 0.0 0.00 0.00 0.00 44 324.2
20260506072437 71 22 0.0 0.0 0.00 0.00 0.00 44 324.2
20260506071931 70 11 0.0 0.0 0.00 0.00 0.00 45 324.3
20260506071425 70 359 0.0 0.0 0.00 0.00 0.00 48 324.3
20260506070919 69 348 0.0 0.0 0.00 0.00 0.00 50 324.4
20260506070413 69 331 0.0 0.0 0.00 0.00 0.00 49 324.4
20260506062325 66 213 0.0 0.0 0.00 0.00 0.00 56 324.8
20260506061819 66 184 0.0 0.0 0.00 0.00 0.00 56 324.9
20260506061313 65 165 0.0 0.0 0.00 0.00 0.00 56 324.9
20260506060807 65 160 0.0 0.0 0.00 0.00 0.00 58 325.0
20260506060301 65 129 0.0 0.0 0.00 0.00 0.00 58 325.0
20260506051201 59 358 0.0 0.0 0.00 0.00 0.00 64 325.6
20260506050655 59 351 0.0 0.0 0.00 0.00 0.00 66 325.6
20260506050149 58 339 0.0 0.0 0.00 0.00 0.00 68 325.7
20260506044631 56 289 0.0 0.0 0.00 0.00 0.00 69 325.8
20260506044125 55 176 0.0 0.0 0.00 0.00 0.00 71 325.8
20260506043619 55 110 0.0 0.0 0.00 0.00 0.00 71 325.9
20260506043113 55 105 0.0 0.0 0.00 0.00 0.00 72 325.9
20260506042607 55 103 0.0 0.0 0.00 0.00 0.00 73 325.9
20260506042101 54 103 0.0 0.0 0.00 0.00 0.00 73 325.9
20260506041555 54 94 0.0 0.0 0.00 0.00 0.00 72 325.9
20260506041049 54 84 0.0 0.0 0.00 0.00 0.00 72 325.9
20260506040543 54 85 0.0 0.0 0.00 0.00 0.00 72 325.9
20260506040037 54 85 0.0 0.0 0.00 0.00 0.00 73 325.9
20260506035531 55 86 0.0 0.0 0.00 0.00 0.00 74 325.9
20260506035025 55 77 0.0 0.0 0.00 0.00 0.00 73 325.9
20260506034519 54 69 0.0 0.0 0.00 0.00 0.00 71 325.9
20260506034013 54 68 0.0 0.0 0.00 0.00 0.00 68 326.0
20260506033507 54 66 0.0 0.0 0.00 0.00 0.00 66 326.0
20260506033001 54 58 0.0 0.0 0.00 0.00 0.00 66 326.0
20260506032455 54 58 0.0 0.0 0.00 0.00 0.00 69 326.0
20260506031949 54 60 0.0 0.0 0.00 0.00 0.00 73 326.0
20260506031443 54 63 0.0 0.0 0.00 0.00 0.00 72 326.0
20260506030937 54 56 0.0 0.0 0.00 0.00 0.00 71 326.0
20260506030431 54 59 0.0 0.0 0.00 0.00 0.00 72 326.0
20260506025925 54 62 0.0 0.0 0.00 0.00 0.00 71 326.0
20260506025419 54 58 0.0 0.0 0.00 0.00 0.00 69 325.9
20260506024913 54 57 0.0 0.0 0.00 0.00 0.00 69 325.8
20260506024407 55 59 0.0 0.0 0.00 0.00 0.00 69 325.8
20260506023901 55 58 0.0 0.0 0.00 0.00 0.00 68 325.7
20260506023355 55 53 0.0 0.0 0.00 0.00 0.00 66 325.7
20260506022849 56 53 0.0 0.0 0.00 0.00 0.00 65 325.8
20260506022343 56 55 0.0 0.0 0.00 0.00 0.00 65 325.8
20260506021837 56 56 0.0 0.0 0.00 0.00 0.00 67 325.8
20260506021331 56 53 0.0 0.0 0.00 0.00 0.00 66 325.7
20260506020825 56 55 0.0 0.0 0.00 0.00 0.00 67 325.7
20260506020319 56 54 0.0 0.0 0.00 0.00 0.00 65 325.7
20260506015813 56 56 0.0 0.0 0.00 0.00 0.00 64 325.7
20260506015307 56 53 0.0 0.0 0.00 0.00 0.00 63 325.7
20260506014801 56 51 0.0 0.0 0.00 0.00 0.00 63 325.7
20260506014255 56 50 0.0 0.0 0.00 0.00 0.00 59 325.7
20260506013749 56 53 0.0 0.0 0.00 0.00 0.00 58 325.7
20260506013243 56 52 0.0 0.0 0.00 0.00 0.00 56 325.6
20260506012737 56 51 0.0 0.0 0.00 0.00 0.00 56 325.6
20260506012231 56 50 0.0 0.0 0.00 0.00 0.00 56 325.5
20260506011725 56 52 0.0 0.0 0.00 0.00 0.00 55 325.5
20260506011219 57 51 0.0 0.0 0.00 0.00 0.00 54 325.5
20260506010713 57 50 0.0 0.0 0.00 0.00 0.00 53 325.5
20260506010207 58 52 0.0 0.0 0.00 0.00 0.00 52 325.4
20260506005701 58 50 0.0 0.0 0.00 0.00 0.00 51 325.5
20260506005155 58 50 0.0 0.0 0.00 0.00 0.00 51 325.5
20260506004649 58 52 0.0 0.0 0.00 0.00 0.00 50 325.5
20260506004143 58 51 0.0 0.0 0.00 0.00 0.00 50 325.4
20260506003637 58 48 0.0 0.0 0.00 0.00 0.00 51 325.4
20260506003131 59 55 0.0 0.0 0.00 0.00 0.00 50 325.4
20260506002625 59 47 0.0 0.0 0.00 0.00 0.00 49 325.3
20260506002119 59 51 0.0 0.0 0.00 0.00 0.00 49 325.3
20260506001613 60 51 0.0 0.0 0.00 0.00 0.00 48 325.3
20260506001107 61 49 0.0 0.0 0.00 0.00 0.00 45 325.2
20260506000601 62 49 0.0 0.0 0.00 0.00 0.00 45 325.2
20260506000055 62 51 0.0 0.0 0.00 0.00 0.00 42 325.2
20260505235549 63 51 0.0 0.0 0.00 0.00 0.00 40 325.2
20260505235043 63 53 0.0 0.0 0.00 0.00 0.00 40 325.2
20260505234537 62 53 1.0 0.0 0.00 0.00 0.00 41 325.2
20260505234031 62 53 2.0 0.0 0.00 0.00 0.00 41 325.2
20260505233525 62 51 0.0 0.0 0.00 0.00 0.00 42 325.2
20260505233019 62 53 1.0 0.0 0.00 0.00 0.00 42 325.2
20260505232513 62 55 0.0 0.0 0.00 0.00 0.00 41 325.2
20260505232007 62 50 1.0 0.0 0.00 0.00 0.00 42 325.1
20260505231501 63 53 2.0 0.0 0.00 0.00 0.00 42 325.1
20260505230955 63 53 0.0 0.0 0.00 0.00 0.00 41 325.1
20260505230449 63 52 1.0 0.0 0.00 0.00 0.00 42 325.1
20260505225943 63 54 1.0 0.0 0.00 0.00 0.00 42 325.1
20260505225437 63 47 2.0 0.0 0.00 0.00 0.00 43 325.0
20260505224931 63 50 1.0 0.0 0.00 0.00 0.00 41 325.0
20260505224425 63 53 1.0 0.0 0.00 0.00 0.00 41 325.0
20260505223919 63 59 0.0 0.0 0.00 0.00 0.00 40 325.0
20260505223413 63 53 0.0 0.0 0.00 0.00 0.00 42 325.0
20260505222907 63 48 0.0 0.0 0.00 0.00 0.00 43 325.1
20260505222401 63 54 2.0 0.0 0.00 0.00 0.00 43 325.1
20260505221855 62 55 1.0 0.0 0.00 0.00 0.00 44 325.1
20260505221349 62 50 0.0 0.0 0.00 0.00 0.00 44 325.1
20260505220843 62 55 2.0 0.0 0.00 0.00 0.00 44 325.0
20260505220337 62 52 2.0 0.0 0.00 0.00 0.00 44 325.0
20260505215831 62 52 0.0 0.0 0.00 0.00 0.00 45 325.0
20260505215325 62 47 2.0 0.0 0.00 0.00 0.00 44 325.0
20260505214819 62 50 0.0 0.0 0.00 0.00 0.00 44 324.9
20260505214313 63 59 0.0 0.0 0.00 0.00 0.00 44 324.9
20260505213807 63 50 0.0 0.0 0.00 0.00 0.00 44 324.9
20260505213301 63 51 0.0 0.0 0.00 0.00 0.00 44 324.9
20260505212755 63 51 0.0 0.0 0.00 0.00 0.00 43 324.9
20260505212249 63 51 0.0 0.0 0.00 0.00 0.00 44 324.9
20260505211743 63 53 0.0 0.0 0.00 0.00 0.00 43 325.0
20260505211237 63 50 0.0 0.0 0.00 0.00 0.00 44 325.0
20260505210731 62 50 3.0 0.0 0.00 0.00 0.00 44 325.0
20260505210225 62 53 0.0 0.0 0.00 0.00 0.00 45 324.9
20260505205719 63 52 1.0 0.0 0.00 0.00 0.00 44 324.9
20260505205213 63 53 1.0 0.0 0.00 0.00 0.00 43 324.8
20260505204707 63 56 1.0 0.0 0.00 0.00 0.00 43 324.8
20260505204201 63 53 1.0 0.0 0.00 0.00 0.00 44 324.8
20260505203655 63 57 2.0 0.0 0.00 0.00 0.00 43 324.9
20260505203149 63 56 2.0 0.0 0.00 0.00 0.00 44 324.9
20260505202643 63 56 2.0 0.0 0.00 0.00 0.00 44 324.8
20260505202137 63 51 1.0 0.0 0.00 0.00 0.00 44 324.8
20260505201631 63 53 0.0 0.0 0.00 0.00 0.00 43 324.8
20260505201125 63 49 0.0 0.0 0.00 0.00 0.00 45 324.7
20260505200619 64 53 0.0 0.0 0.00 0.00 0.00 44 324.7
20260505200113 64 50 0.0 0.0 0.00 0.00 0.00 43 324.6
20260505195607 64 52 1.0 0.0 0.00 0.00 0.00 42 324.6
20260505195101 64 53 2.0 0.0 0.00 0.00 0.00 43 324.6
20260505194555 64 56 0.0 0.0 0.00 0.00 0.00 43 324.6
20260505194049 64 55 0.0 0.0 0.00 0.00 0.00 44 324.6
20260505193543 64 53 0.0 0.0 0.00 0.00 0.00 44 324.6
20260505193037 64 55 0.0 0.0 0.00 0.00 0.00 44 324.6
20260505192531 65 53 2.0 0.0 0.00 0.00 0.00 44 324.5
20260505192025 65 53 1.0 0.0 0.00 0.00 0.00 43 324.5
20260505191519 64 57 2.0 0.0 0.00 0.00 0.00 44 324.5
20260505191013 64 56 2.0 0.0 0.00 0.00 0.00 45 324.5
20260505190507 64 51 2.0 0.0 0.00 0.00 0.00 46 324.5
20260505190001 64 55 2.0 0.0 0.00 0.00 0.00 45 324.5
20260505185455 64 55 0.0 0.0 0.00 0.00 0.00 46 324.4
20260505184949 64 56 0.0 0.0 0.00 0.00 0.00 46 324.4
20260505184443 64 54 0.0 0.0 0.00 0.00 0.00 45 324.4
20260505183937 64 57 2.0 0.0 0.00 0.00 0.00 45 324.3
20260505183431 64 54 2.0 0.0 0.00 0.00 0.00 46 324.3
20260505182925 64 56 1.0 0.0 0.00 0.00 0.00 46 324.2
20260505182419 64 54 1.0 0.0 0.00 0.00 0.00 45 324.1
20260505181913 65 54 0.0 0.0 0.00 0.00 0.00 44 324.1
20260505181407 65 56 0.0 0.0 0.00 0.00 0.00 45 324.1
20260505180901 65 55 0.0 0.0 0.00 0.00 0.00 45 324.0
20260505180355 66 52 0.0 0.0 0.00 0.00 0.00 45 323.9
20260505175849 67 58 0.0 0.0 0.00 0.00 0.00 45 323.9
20260505175343 67 57 0.0 0.0 0.00 0.00 0.00 43 323.9
20260505174837 67 59 0.0 0.0 0.00 0.00 0.00 42 323.8
20260505174331 67 59 0.0 0.0 0.00 0.00 0.00 42 323.8
20260505173825 67 60 2.0 0.0 0.00 0.00 0.00 42 323.8
20260505173319 67 62 0.0 0.0 0.00 0.00 0.00 44 323.7
20260505172813 68 65 2.0 0.0 0.00 0.00 0.00 43 323.6
20260505172307 68 60 2.0 0.0 0.00 0.00 0.00 43 323.4
20260505171801 69 65 2.0 0.0 0.00 0.00 0.00 42 323.2
20260505171255 69 69 1.0 0.0 0.00 0.00 0.00 40 322.9
20260505170749 70 74 1.0 0.0 0.00 0.00 0.00 40 322.5
20260505170243 71 79 0.0 0.0 0.00 0.00 0.00 39 322.3
20260505165737 71 80 0.0 0.0 0.00 0.00 0.00 40 321.9
20260505165231 72 89 0.0 0.0 0.00 0.00 0.00 40 321.6
20260505164725 72 92 0.0 0.0 0.00 0.00 0.00 41 321.4
20260505164219 73 93 0.0 0.0 0.00 0.00 0.00 41 321.3
20260505163713 73 96 0.0 0.0 0.00 0.00 0.00 40 321.2
20260505163207 74 102 2.0 0.0 0.00 0.00 0.00 39 321.1
20260505162701 74 98 1.0 0.0 0.00 0.00 0.00 40 321.0
20260505162155 76 101 2.0 0.0 0.00 0.00 0.00 38 320.9
20260505161649 78 106 2.0 0.0 0.00 0.00 0.00 37 320.8
20260505161143 78 117 0.0 0.0 0.00 0.00 0.00 35 320.9
20260505160637 78 148 0.0 0.0 0.00 0.00 0.00 36 321.2
20260505160131 78 196 0.0 0.0 0.00 0.00 0.00 36 321.5
20260505153055 79 7 2.0 0.0 0.00 0.00 0.00 32 322.3
20260505152549 80 20 1.0 0.0 0.00 0.00 0.00 30 322.3
20260505152043 81 38 1.0 0.0 0.00 0.00 0.00 29 322.3
20260505151537 81 53 1.0 0.0 0.00 0.00 0.00 29 322.3
20260505151031 81 67 2.0 0.0 0.00 0.00 0.00 28 322.3
20260505150525 81 89 2.0 12.0 0.00 0.00 0.00 27 322.3